Location: *
(42.3442°N, 9.2072°E)
Time: 15:05:42
(UTC+00:00)

Cosmos 1726 Rocket - Pass Details

Date: 09 April 2020
Orbit: 602 x 631 km, 82.5° (Epoch: 04 June)

Event Time Altitude Azimuth Distance (km) Brightness Sun altitude
Rises 18:54:08 0° 185° (S) 2,879 6.8 -10.7°
Reaches altitude 10° 18:56:20 10° 185° (S) 1,982 6.0 -11.1°
Maximum altitude 19:00:44 87° 102° (ESE) 632 3.5 -11.8°
Drops below altitude 10° 19:05:12 10° 9° (N) 2,013 6.4 -12.6°
Sets 19:07:27 0° 9° (N) 2,928 7.2 -13.0°
